Content
SEND FEEDBACK

Daily
Averages
Monthly
Summary
United States of America

WILMINGTON, NORTH CAROLINA


Home > North America > United States > North Carolina
Elevation: 72 feet     Latitude: 34 16N     Longitude: 077 54W

WEATHER
 
SELECT A DAY
Number of Records: 213,315;   Date Range: 1/1/95 - 11/25/14
 
SHARE

PRINT THIS DATA

[ ← Previous Day ]
WEATHER ALMANAC - APRIL 25, 2014
[ Next Day → ]
[ °C ]   °F
Weather ElementAverageHighLow
Temperature69.8 °F81 °F (3:53 pm)55 °F (4:53 am)
Dewpoint60.7 °F66 °F (2:53 pm)52 °F (4:53 am)
Humidity74.1 %93 % (5:53 am)55 % (6:53 pm)
Barometer29.88 in29.99 in (1:53 am)29.73 in (7:53 pm)
Wind Speed9.8 mph23 mph (5:53 pm)
Wind Gust35.7 mph (5:53 pm)
Weather ElementAverage
Visibility9.3 mi
Wind DirectionSSE (143.3 °)

Weather ElementTotal
Precipitation0.04 in
Cooling Degree Days3 (Base 65)
Growing Degree Days18 (Base 50)
Averaged from 24 records on April 25, 2014
WEATHER CONDITIONS BREAKOUT
WIND DIRECTION BREAKOUT
WEATHER BY HOUR - APRIL 25, 2014
[ °C ]   °F
Local TimeTemperatureDewpointHumidityBarometerVisibilityWind DirectionWind SpeedGust SpeedPrecipitationEventsConditions
1:53 AM57.0 °F53.1 °F87 %29.99 in10.0 miCalmClear
2:53 AM57.9 °F55.0 °F90 %29.97 in9.0 miCalmClear
3:53 AM55.9 °F53.1 °F90 %29.98 in9.0 miNNE (20°)3.5 mphClear
4:53 AM55.0 °F52.0 °F89 %29.98 in7.0 miENE (70°)3.5 mphClear
5:53 AM55.0 °F53.1 °F93 %29.97 in8.0 miCalmClear
6:53 AM57.9 °F55.0 °F90 %29.98 in7.0 miCalmScattered Clouds
7:53 AM64.9 °F62.1 °F90 %29.97 in5.0 miCalmClear
8:53 AM73.0 °F64.9 °F76 %29.96 in10.0 miSSE (150°)9.2 mphClear
9:53 AM73.9 °F64.9 °F73 %29.95 in10.0 miSSE (150°)10.4 mphMostly Cloudy
10:53 AM73.9 °F61.0 °F64 %29.95 in10.0 miSSE (160°)11.5 mphMostly Cloudy
11:53 AM75.9 °F63.0 °F64 %29.93 in10.0 miSSE (160°)9.2 mph17.3 mphMostly Cloudy
12:53 PM80.1 °F64.9 °F60 %29.90 in10.0 miSSW (200°)15.0 mph26.5 mphMostly Cloudy
1:53 PM78.1 °F64.9 °F64 %29.86 in10.0 miSSE (160°)13.8 mph20.7 mphOvercast
2:53 PM80.1 °F66.0 °F62 %29.83 in10.0 miSSW (200°)18.4 mph26.5 mphMostly Cloudy
3:53 PM81.0 °F64.9 °F58 %29.79 in10.0 miSSW (200°)15.0 mph27.6 mphMostly Cloudy
4:45 PM80.1 °F66.0 °F62 %29.77 in10.0 miSouth (190°)21.9 mph29.9 mphMostly Cloudy
4:53 PM79.0 °F66.0 °F64 %29.77 in10.0 miSSW (200°)19.6 mph32.2 mphMostly Cloudy
5:53 PM78.1 °F61.0 °F56 %29.74 in10.0 miSSW (200°)23.0 mph35.7 mphClear
6:53 PM75.0 °F57.9 °F55 %29.75 in10.0 miSSW (210°)11.5 mph33.4 mphClear
7:53 PM70.0 °F60.1 °F71 %29.73 in10.0 miSSW (200°)16.1 mph28.8 mphPartly Cloudy
8:53 PM69.1 °F61.0 °F75 %29.77 in10.0 miSW (220°)12.7 mphClear
9:53 PM68.0 °F61.0 °F78 %29.79 in10.0 miSSW (210°)9.2 mphPartly Cloudy
10:53 PM69.1 °F64.0 °F84 %29.83 in10.0 miWest (260°)6.9 mph0.04 inMostly Cloudy
11:53 PM68.0 °F63.0 °F84 %29.84 in9.0 miWest (280°)5.8 mphScattered Clouds
Hourly data recorded from KILM, located miles away from Wilmington, North Carolina







STORIES FROM OUR PARTNERS